Regional Weather Roundup
Issued by NWS

Home | Current Version | Previous Version | Graphics & Text | Print | Product List | Glossary On
Versions: 1 2 3 4 5 6 7 8 9 10 11 12 13 14 15 16 17 18 19 20 21 22 23 24 25 26 27 28 29 30 31 32 33 34 35 36 37 38 39 40 41 42 43 44 45 46 47 48 49 50
000
ASUS43 KDMX 291901
RWRIA

WEATHER ROUNDUP FOR IOWA
NATIONAL WEATHER SERVICE DES MOINES IA
200 PM CDT MON MAY 29 2017

NOTE: "FAIR" INDICATES FEW OR NO CLOUDS BELOW 12,000 FEET WITH NO
SIGNIFICANT WEATHER AND/OR OBSTRUCTIONS TO VISIBILITY.

* - THESE STATIONS ARE NOT NWS STATIONS...THUS NOT UNDER NWS
QUALITY CONTROL.  THEY ALSO DO NOT REPORT WEATHER SUCH
AS PRECIPITATION OR FOG.

IAZ001>003-012>014-020>022-031>034-043>046-292000-
   NORTHWEST IOWA

CITY           SKY/WX    TMP DP  RH WIND       PRES   REMARKS
CARROLL *      MOSUNNY   73  43  33 NW24G36   29.97S
CHEROKEE *     PTSUNNY   65  44  45 NW18G28   29.96F
DENISON *      MOSUNNY   70  41  35 W20G29    30.01S
LE MARS *      MOSUNNY   68  45  42 NW22G32   30.00R
ORANGE CITY *  MOSUNNY   64  46  52 NW24G35   29.98S
SHELDON *      PTSUNNY   66  41  39 NW23G31   29.95S
SIOUX CITY     MOSUNNY   71  45  39 NW23G35   29.98F
SPENCER        CLOUDY    63  44  50 NW17G29   29.95R
STORM LAKE *     N/A     66  41  39 NW23G31   29.97R
$$

IAZ055>058-069>071-079>083-090>094-292000-
   SOUTHWEST IOWA

CITY           SKY/WX    TMP DP  RH WIND       PRES   REMARKS
ATLANTIC *     MOSUNNY   72  39  30 NW24G31   29.99S
AUDUBON *      MOSUNNY   70  39  32 NW13G22   30.00S
CLARINDA *     MOSUNNY   75  41  29 NW21      30.01F
COUNCIL BLFS * SUNNY     73  39  29 NW22G29   30.00F
CRESTON *      SUNNY     72  41  33 W23G32    29.99F
HARLAN  *      MOSUNNY   73  37  27 NW30G39   30.02F
LAMONI         SUNNY     76  42  29 W16G29    29.97F
RED OAK *      MOSUNNY   75  41  29 NW17G25   30.00F
SHENANDOAH *   MOSUNNY   73  43  33 NW15G24   30.01F
$$

IAZ047>049-059>061-072>074-084-292000-
   CENTRAL IOWA

CITY           SKY/WX    TMP DP  RH WIND       PRES   REMARKS
AMES           MOSUNNY   72  43  35 W25       29.93F
ANKENY *       SUNNY     72  43  35 NW18G29   29.95S
BOONE *        MOSUNNY   72  43  35 W22G30    29.93F
CHARITON *     MOSUNNY   73  43  33 NW16G26   29.95F
DES MOINES     MOSUNNY   75  41  29 W23G35    29.94F
GRINNELL*      MOSUNNY   72  43  35 W22G30    29.94S
KNOXVILLE *    PTSUNNY   72  41  33 NW18G25   29.93F
MARSHALLTOWN   PTSUNNY   70  45  40 W20G26    29.91S
NEWTON *       PTSUNNY   72  43  35 W22G31    29.93S
PELLA *        SUNNY     73  39  28 W23G29    29.95S
PERRY *          N/A     73  35  25 W15G25    29.96S
$$

IAZ004>006-015-016-023>025-035-036-292000-
   NORTH CENTRAL IOWA

CITY           SKY/WX    TMP DP  RH WIND       PRES   REMARKS
ALGONA *       CLOUDY    66  43  42 NW18G28   29.93R
CLARION *      PTSUNNY   70  41  35 W26G36    29.92S
ESTHERVILLE    CLOUDY    65  45  48 NW23G31   29.93R
FORT DODGE *   CLOUDY    68  43  40 W15G26    29.95R
MASON CITY     CLOUDY    65  43  44 W23       29.91R
FOREST CITY *  PTSUNNY   66  34  30 NW13G21   29.90S
WEBSTER CITY * MOSUNNY   72  41  33 W25G32    29.91S
IOWA FALLS *   PTSUNNY   71  41  34 W23G30    29.92F
$$

IAZ007>011-017>019-026>030-037>042-050>054-066-292000-
   NORTHEAST IOWA

CITY           SKY/WX    TMP DP  RH WIND       PRES   REMARKS
CEDAR RAPIDS   MOSUNNY   73  47  39 W22G36    29.89S
CHARLES CITY * PTSUNNY   66  41  39 W16G28    29.89S
CLINTON *      MOSUNNY   74  47  38 W26G38    29.87F
DECORAH *      PTSUNNY   63  46  55 W10G22    29.86R
DUBUQUE        CLOUDY    67  45  45 W20       29.88S
MONTICELLO *   MOSUNNY   72  45  37 W21G29    29.87F
OELWEIN *      CLOUDY    68  45  42 W18G25    29.89S
WATERLOO       CLOUDY    68  42  38 W17G25    29.88S
$$

IAZ064-065-067-068-078-292000-
   EAST CENTRAL IOWA

CITY           SKY/WX    TMP DP  RH WIND       PRES   REMARKS
DAVENPORT      MOSUNNY   73  42  32 W24G33    29.89S
IOWA CITY      PTSUNNY   72  43  35 W17G31    29.91F
MT. PLEASANT * SUNNY     75  38  26 W15G28    29.92F
MUSCATINE *    MOSUNNY   73  43  33 W23G30    29.91S
QUAD CITIES    SUNNY     75  44  33 W21G35    29.89S
$$

IAZ062-063-075>077-085>089-095>099-292000-
   SOUTHEAST IOWA

CITY           SKY/WX    TMP DP  RH WIND       PRES   REMARKS
BURLINGTON     SUNNY     77  43  29 W17G24    29.91F
FAIRFIELD *    SUNNY     75  41  29 W16G28    29.92F
FORT MADISON * SUNNY     79  41  25 W17       29.93S
KEOKUK *       SUNNY     75  46  35 NW10G16   29.92F
OSKALOOSA *      N/A     75  40  28 W23G30    29.93F
OTTUMWA        SUNNY     73  41  31 W21G28    29.93F
WASHINGTON *   MOSUNNY   75  41  29 W23G29    29.93S
$$

ABBREVIATIONS USED IN REMARKS
   TC - TEMPERATURES IN CELSIUS
  WCI - WIND CHILL INDEX
   HX - HEAT INDEX
  VSB - VISIBILITY
$$





USA.gov is the U.S. government's official web portal to all federal, state and local government web resources and services.